{"data":{"norad_id":67828,"epoch":"2026-05-25T03:30:51.768864Z","epoch_age_seconds":58278,"freshness":"FRESH","line1":"1 67828U 26033H   26145.14643251  .00021230  00000+0  77855-3 0  9991","line2":"2 67828  42.9995 195.5659 0001183 262.7976  97.2741 15.27589403 16363","mean_motion":15.27589403,"eccentricity":0.0001183,"inclination_deg":42.9995,"raan_deg":195.5659,"arg_perigee_deg":262.7976,"mean_anomaly_deg":97.2741,"bstar":0.00077855,"rev_number":1636,"period_min":94.266168459405,"perigee_km":482.20926523504,"apogee_km":483.8326152037,"semimajor_km":6861.1579402194,"source":"CELESTRAK","updated_at":"2026-05-25T13:38:21.698815Z"}}